Погода в Колянуре

Россия / Кировская область     57°25′11″N   48°48′07″E
темп.,
°C
ветер,
м/с
пор.,
м/с
влажн.,
%
обл.,
%
осадки,
мм/ч
давл.,
гПа
погр.,
м
18 мая, вт
вт1800:00+16всв22775 0.0 101818
03:00+14в3584100 0.0 101984
06:00+17в4875100 0.0 1018246
09:00+21вюв345835 0.0 1019716
12:00+24в334884 0.0 10191165
15:00+25в444744 0.0 10191073
18:00+22в48585 0.0 1019293
21:00+17в49705 0.0 1019149
19 мая, ср
ср1900:00+15вюв4107613 0.0 1019171
03:00+14вюв5127924 0.0 1020243
06:00+16вюв511775 0.0 1020330
09:00+21вюв68586 0.0 1020762
12:00+23юв67455 0.0 10201318
15:00+24юв674125 0.0 10191435
18:00+22юв49555 0.0 1019289
21:00+17вюв49695 0.0 1019143
20 мая, чт
чт2000:00+15юв412700 0.0 1019211
03:00+14юв512724 0.0 1019206
06:00+16юв511720 0.0 1018278
09:00+22юв695465 0.0 1018785
12:00+24ююв710399 0.0 10171659
15:00+25юв69425 0.0 10161783
18:00+22юв59565 0.0 1015319
21:00+16юв49725 0.0 1015143
21 мая, пт
пт2100:00+14юв410742 0.0 1015158
03:00+13юв49755 0.0 1014157
06:00+15юв5117022 0.0 1014284
09:00+20юв6952100 0.0 1013689
12:00+23ююв68417 0.0 10122049
15:00+22юв5749100 0.0 10111429
18:00+18ю4871100 0.3 1011192
21:00+15ю4989100 1.1 1011188
22 мая, сб
сб2200:00+14юз51193100 0.6 1011325
03:00+12юз6119667 0.6 1012408
06:00+13зюз61192100 0.1 1014711
09:00+14з6987100 0.2 1016694
12:00+19з5664100 0.1 10171326
15:00+20зсз3554100 0.3 1018975
18:00+18зсз3659100 0.0 1019193
21:00+13зсз2271100 0.0 102014